Tracking 35237 objects as of 6-Sep-2026
HD Live streaming from Space Station
objects crossing your sky now

SL-12 R/B(1)


SL-12 R/B(1) is no longer on orbit


NORAD ID: 19018
Int'l Code: 1988-028B
Launch date: March 31, 1988
Source: Commonwealth of Independent States (former USSR) (CIS)
Launch site: TYURATAM MISSILE AND SPACE COMPLEX (TTMTR)
Decay date: 1988-04-02

Note: This is a ROCKET BODY
Your satellite tracking list
Your tracking list is empty




NASA's NSSDC Master Catalog

Two Line Element Set (TLE):
1 19018U 88028  B 88092.57726817  .07537074 +56123-4 +43236-3 0  9990
2 19018 051.6181 254.8934 0004444 225.7037 134.4270 16.41854459000233
Source of the keplerian elements: AFSPC